Location: Unspecified
(0.0000°N, 0.0000°E)
Time: 20:16:48
(UTC+01:00)

Iridium 76 - Visible Passes

Search period start: 31 October 2014 00:00
Search period end: 10 November 2014 00:00
Orbit: 776 x 779 km, 86.4° (Epoch: 31 October)

Date Brightness Start Highest point End Pass type
(mag) Time Alt. Az. Time Alt. Az. Time Alt. Az.
01 Nov 6.1 05:44:37 10° N 05:49:44 60° E 05:54:52 10° S visible
02 Nov 7.7 05:11:58 10° NNE 05:16:17 27° E 05:20:37 10° SSE visible
03 Nov 8.6 04:41:00 10° ENE 04:42:51 12° E 04:44:41 10° ESE visible
04 Nov 5.5 05:44:36 10° N 05:49:48 83° W 05:55:01 10° S visible
05 Nov 6.7 05:11:26 10° NNE 05:16:21 43° E 05:21:16 10° SSE visible
06 Nov 8.0 04:39:12 10° NE 04:42:54 20° E 04:46:36 10° SE visible
07 Nov 5.7 05:44:51 10° NNW 05:49:52 50° W 05:54:54 10° SSW visible
08 Nov 5.7 05:11:14 10° N 05:16:24 72° E 05:21:36 10° S visible
09 Nov 7.2 04:38:23 10° NNE 04:42:58 32° E 04:47:33 10° SSE visible
